Signal Mountain, TN

10:38 AM EST on March 04, 2015 (GMT -0500)
Shackleford Ridge | Change Station
CLOSE
Current Station
Personal Weather Station
Location: Signal Mountain, TN
Elevation: 2010 ft
Nearby Weather Stations
Active Advisory: Winter Storm Watch

Elev 2010 ft 35.17 °N, 85.34 °W | Updated 3 seconds ago

Overcast
Overcast
61.3 °F
Feels Like 61.3 °F
N
1.1
Wind Variable Wind from East
Gusts 2.9 mph

Today
High -- | Low -- °F
--% Chance of Precip.
Yesterday
High -- | Low -- °F
Precip. -- in
7:07 AM 6:39 PM
Waxing Gibbous, 99% visible
Pressure 29.96 in
Visibility 7.0 miles
Clouds Scattered Clouds 1000 ft
Mostly Cloudy 2500 ft
Mostly Cloudy 4000 ft
Dew Point 59 °F
Humidity 93%
Rainfall 0.21 in
Snow Depth Not available.
UV 2 out of 12
Pollen .70 out of 12
Air Quality Not available.
Flu Activity Not available.
METAR KCHA 041453Z 18012KT 7SM SCT010 BKN025 BKN040 18/16 A2997 RMK AO2 SLP146 60000 T01780161 50002

More Conditions Fewer Conditions

Pressure 29.96 in
Visibility 7.0 miles
Clouds Scattered Clouds 1000 ft
Mostly Cloudy 2500 ft
Mostly Cloudy 4000 ft
Dew Point 59 °F
Humidity 93%
Rainfall 0.21 in
Snow Depth Not available.
UV 2 out of 12
Pollen .70 out of 12
Air Quality Not available.
Flu Activity Not available.
METAR KCHA 041453Z 18012KT 7SM SCT010 BKN025 BKN040 18/16 A2997 RMK AO2 SLP146 60000 T01780161 50002

More Conditions Fewer Conditions

10-Day Weather Forecast

Almanac

Astronomy

Mar. 04, 2015 Rise Set
Actual Time
Civil Twilight
Nautical Twilight
Astronomical Twilight
Moon
Length of Visible Light
Length of Day
Tomorrow will be .
, % of the Moon is Illuminated

Today's Extremes

State Highs State Lows

Community

WunderPhotos

Upload Photos

1,802,490 photos uploaded!

WunderBlogs® & News

Nearby

Air Quality

  Air Quality AQ Index Pollutant
Not available.

Snow Depth

Station Depth Elevation

Earthquake Activity

City Distance Mag. Time & Date
Minimum magnitude displayed is 2.5.

Coastal Water Temperatures

Place Temperature

Nearby Weather Stations

Winter Storm Watch
Statement as of 3:30 AM EST on March 04, 2015

... Winter Storm Watch remains in effect from late tonight through
Thursday afternoon...

* event... wintry mix of freezing rain changing to sleet and snow.

* Timing... beginning around midnight Wednesday night and
continuing until 4 PM EST Thursday afternoon.

* Impacts... freezing rain accumulations a quarter of an inch or
less... changing over to sleet and snow with accumulations
generally 2 inches or less.

Precautionary/preparedness actions...

A Winter Storm Watch means there is a potential for significant
snow... sleet... and/or ice accumulations. Future driving
conditions may become hazardous... so continue to monitor the
latest forecasts.